Tracking 30107 objects as of 18-Jan-2025
HD Live streaming from Space Station
objects crossing your sky now

STARLINK-3786

Track STARLINK-3786 now!
10-day predictions
STARLINK-3786 is classified as:


NORAD ID: 52263
Int'l Code: 2022-041C
Perigee: 546.0 km
Apogee: 547.8 km
Inclination: 53.2 °
Period: 95.4 minutes
Semi major axis: 6917 km
RCS: Unknown
Launch date: April 21, 2022
Source: United States (US)
Launch site: AIR FORCE EASTERN TEST RANGE (AFETR)
Your satellite tracking list
Your tracking list is empty




NASA's NSSDC Master Catalog

Two Line Element Set (TLE):
1 52263U 22041C   25017.72795665  .00000365  00000-0  41035-4 0  9990
2 52263  53.2167 176.4447 0001347  90.7138 269.4009 15.08839401151567
Source of the keplerian elements: AFSPC